Location: Newark
(53.3333°N, 83.7500°E)
Time: 07:38:47
(UTC+00:00)

SR - Pass Details

Date: 17 November 2019
Orbit: 573 x 882 km, 66.7° (Epoch: 07 December)

Event Time Altitude Azimuth Distance (km) Brightness Sun altitude
Rises 12:12:37 0° 262° (W) 3,300 ? -15.5°
Reaches altitude 10° 12:15:16 10° 273° (W) 2,417 ? -15.9°
Maximum altitude 12:20:13 31° 335° (NNW) 1,468 ? -16.6°
Enters shadow 12:24:37 13° 32° (NNE) 2,293 ? -17.3°
